Weather in Gniezno

Poland     52°31′28″N   17°35′51″E
temp.,
°C
wind,
m/s
gust,
m/s
humid.,
%
clouds,
%
prec.,
mm/h
press.,
hPa
HPBL,
m
16 september, thu
thu1623:00+18se41066100 0.0 1012248
02:00+17se2274100 0.2 101148
05:00+16sse2391100 1.3 1010127
08:00+17sw3898100 2.8 1010290
11:00+19w4887100 0.4 1011612
14:00+22wnw5671100 0.9 10111029
17:00+20w667298 0.4 1011948
20:00+15wnw498177 0.4 1012273
17 september, fri
fri1723:00+13w358263 0.0 101285
02:00+15sw3575100 0.0 1012147
05:00+14wsw3682100 0.0 1011217
08:00+14w478917 0.2 1010352
11:00+15w4686100 0.1 1012601
14:00+14w4793100 0.6 1011490
17:00+14wnw479299 0.9 1012435
20:00+13wnw3795100 2.2 1012387
18 september, sat
sat1823:00+13wnw4797100 6.6 1012369
02:00+13wnw4797100 10.3 1012367
05:00+13nw4998100 2.9 1011487
08:00+12nne4794100 4.1 1012451
11:00+11nne4690100 0.1 1013612
14:00+9nne5791100 1.3 1014507
17:00+9nne5889100 1.2 1015640
20:00+8ne51286100 1.3 1017620
19 september, sun
sun1923:00+8nne51288100 0.1 1017703
02:00+8n3988100 1.4 1017508
05:00+9n4782100 0.0 1017356
08:00+8n488161 0.0 1018320
11:00+12ne57635 0.0 1019939
14:00+15ne565428 0.0 10191306
17:00+16nne565286 0.0 10191494
20:00+10ne410640 0.0 1020236
20 september, mon
mon2023:00+8nne387474 0.0 1022167
02:00+7nne3575100 0.0 102291
05:00+6ne36779 0.0 1023113
08:00+7ne48710 0.0 1024247
11:00+12ne57490 0.0 10251010
14:00+14ne56410 0.0 10251293
17:00+14ne46410 0.0 10251379
20:00+9ne410590 0.0 1027201